| time (UTC) | temp C | wind direction | speed KPH | gust KPH | rain 1hr cm | rain 24hr cm | rain mn cm | humidity % | barometer mb |
| 20260504050021 | 7 | 240 | 8.0 | 16.1 | 0.00 | 0.00 | 0.00 | 54 | 1010.7 |
| 20260504044519 | 7 | 212 | 4.8 | 17.7 | 0.00 | 0.00 | 0.00 | 55 | 1010.8 |
| 20260504043018 | 7 | 207 | 4.8 | 16.1 | 0.00 | 0.00 | 0.00 | 55 | 1010.8 |
| 20260504041515 | 7 | 200 | 3.2 | 9.7 | 0.00 | 0.00 | 0.00 | 55 | 1010.8 |
| 20260504040013 | 7 | 169 | 6.4 | 11.3 | 0.00 | 0.00 | 0.00 | 54 | 1010.9 |
| 20260504034516 | 8 | 215 | 3.2 | 8.0 | 0.00 | 0.00 | 0.00 | 53 | 1010.9 |
| 20260504033012 | 8 | 248 | 3.2 | 8.0 | 0.00 | 0.00 | 0.00 | 52 | 1010.9 |
| 20260504031512 | 8 | 200 | 3.2 | 12.9 | 0.00 | 0.00 | 0.00 | 51 | 1010.9 |
| 20260504030010 | 8 | 190 | 4.8 | 11.3 | 0.00 | 0.00 | 0.00 | 51 | 1010.9 |
| 20260504024510 | 8 | 223 | 8.0 | 16.1 | 0.00 | 0.00 | 0.00 | 50 | 1011.0 |
| 20260504023011 | 9 | 211 | 4.8 | 12.9 | 0.00 | 0.00 | 0.00 | 50 | 1011.1 |
| 20260504021509 | 10 | 219 | 4.8 | 11.3 | 0.00 | 0.00 | 0.00 | 48 | 1011.2 |
| 20260504020008 | 10 | 236 | 4.8 | 8.0 | 0.00 | 0.00 | 0.00 | 47 | 1011.2 |
| 20260504014516 | 10 | 230 | 3.2 | 6.4 | 0.00 | 0.00 | 0.00 | 46 | 1011.0 |
| 20260504013009 | 10 | 229 | 4.8 | 12.9 | 0.00 | 0.00 | 0.00 | 45 | 1011.0 |
| 20260504011509 | 11 | 208 | 6.4 | 14.5 | 0.00 | 0.00 | 0.00 | 44 | 1010.9 |
| 20260504010007 | 11 | 229 | 4.8 | 12.9 | 0.00 | 0.00 | 0.00 | 45 | 1010.8 |
| 20260504004506 | 11 | 229 | 3.2 | 14.5 | 0.00 | 0.00 | 0.00 | 43 | 1010.7 |
| 20260504003006 | 11 | 194 | 6.4 | 14.5 | 0.00 | 0.00 | 0.00 | 43 | 1010.5 |
| 20260504001505 | 11 | 238 | 8.0 | 16.1 | 0.00 | 0.00 | 0.00 | 42 | 1010.5 |
| 20260504000005 | 11 | 249 | 8.0 | 19.3 | 0.00 | 0.00 | 0.00 | 42 | 1010.4 |
| 20260503234507 | 11 | 233 | 4.8 | 19.3 | 0.00 | 0.00 | 0.00 | 42 | 1010.3 |
| 20260503233003 | 12 | 217 | 8.0 | 25.7 | 0.00 | 0.00 | 0.00 | 42 | 1010.3 |
| 20260503231503 | 12 | 255 | 4.8 | 16.1 | 0.00 | 0.00 | 0.00 | 41 | 1010.2 |
| 20260503230002 | 12 | 252 | 6.4 | 20.9 | 0.00 | 0.00 | 0.00 | 40 | 1010.2 |
| 20260503224601 | 12 | 291 | 8.0 | 27.4 | 0.00 | 0.00 | 0.00 | 40 | 1010.3 |
| 20260503223100 | 12 | 287 | 9.7 | 24.1 | 0.00 | 0.00 | 0.00 | 40 | 1010.3 |
| 20260503221559 | 12 | 240 | 6.4 | 17.7 | 0.00 | 0.00 | 0.00 | 40 | 1010.3 |
| 20260503220105 | 12 | 299 | 14.5 | 32.2 | 0.00 | 0.00 | 0.00 | 39 | 1010.4 |
| 20260503214559 | 12 | 247 | 12.9 | 25.7 | 0.00 | 0.00 | 0.00 | 40 | 1010.4 |
| 20260503213133 | 12 | 247 | 11.3 | 25.7 | 0.00 | 0.00 | 0.00 | 43 | 1010.4 |
| 20260503211620 | 12 | 308 | 6.4 | 27.4 | 0.00 | 0.00 | 0.00 | 41 | 1010.3 |
| 20260503210056 | 12 | 225 | 8.0 | 30.6 | 0.00 | 0.00 | 0.00 | 40 | 1010.3 |
| 20260503204610 | 12 | 296 | 11.3 | 32.2 | 0.00 | 0.00 | 0.00 | 40 | 1010.4 |
| 20260503203101 | 13 | 309 | 11.3 | 29.0 | 0.00 | 0.00 | 0.00 | 39 | 1010.4 |
| 20260503201551 | 12 | 321 | 16.1 | 30.6 | 0.00 | 0.00 | 0.00 | 40 | 1010.6 |
| 20260503200051 | 12 | 335 | 12.9 | 27.4 | 0.00 | 0.00 | 0.00 | 41 | 1010.9 |
| 20260503194547 | 12 | 327 | 14.5 | 30.6 | 0.00 | 0.00 | 0.00 | 41 | 1011.1 |
| 20260503193046 | 12 | 298 | 17.7 | 30.6 | 0.00 | 0.00 | 0.00 | 41 | 1011.1 |
| 20260503191559 | 11 | 285 | 14.5 | 25.7 | 0.00 | 0.00 | 0.00 | 40 | 1011.3 |
| 20260503190047 | 12 | 269 | 16.1 | 30.6 | 0.00 | 0.00 | 0.00 | 40 | 1011.3 |
| 20260503184600 | 11 | 286 | 12.9 | 29.0 | 0.00 | 0.00 | 0.00 | 41 | 1011.3 |
| 20260503183045 | 12 | 349 | 9.7 | 27.4 | 0.00 | 0.00 | 0.00 | 38 | 1011.4 |
| 20260503181539 | 11 | 328 | 8.0 | 29.0 | 0.00 | 0.00 | 0.00 | 41 | 1011.7 |
| 20260503180038 | 11 | 317 | 8.0 | 24.1 | 0.00 | 0.00 | 0.00 | 39 | 1011.6 |
| 20260503174545 | 11 | 295 | 9.7 | 24.1 | 0.00 | 0.00 | 0.00 | 45 | 1011.8 |
| 20260503173034 | 10 | 284 | 9.7 | 20.9 | 0.00 | 0.00 | 0.00 | 45 | 1011.9 |
| 20260503171535 | 10 | 246 | 14.5 | 22.5 | 0.00 | 0.00 | 0.00 | 40 | 1012.2 |
| 20260503081602 | 1 | 315 | 4.8 | 11.3 | 0.00 | 0.00 | 0.00 | 79 | 1012.9 |
| 20260503071610 | 1 | 281 | 3.2 | 11.3 | 0.00 | 0.00 | 0.00 | 78 | 1012.9 |
| 20260503070111 | 1 | 262 | 3.2 | 9.7 | 0.00 | 0.00 | 0.00 | 79 | 1012.8 |
| 20260503054554 | 1 | 317 | 1.6 | 6.4 | 0.00 | 0.03 | 0.00 | 75 | 1013.1 |
| 20260503053041 | 1 | 284 | 3.2 | 6.4 | 0.00 | 0.03 | 0.00 | 75 | 1013.1 |